TimeCST,TemperatureF,Dew PointF,Humidity,Sea Level PressureIn,VisibilityMPH,Wind Direction,Wind SpeedMPH,Gust SpeedMPH,PrecipitationIn,Events,Conditions,WindDirDegrees,DateUTC
12:52 AM,3.0,-6.0,66,30.74,10.0,Calm,Calm,-,N/A,,Overcast,0,2014-02-06 06:52:00
1:52 AM,1.9,-7.1,66,30.74,10.0,Calm,Calm,-,N/A,,Overcast,0,2014-02-06 07:52:00
2:52 AM,-0.0,-8.0,69,30.73,10.0,Calm,Calm,-,N/A,,Scattered Clouds,0,2014-02-06 08:52:00
3:52 AM,-0.0,-9.0,66,30.74,10.0,Calm,Calm,-,N/A,,Clear,0,2014-02-06 09:52:00
4:52 AM,-2.9,-9.9,72,30.74,10.0,Calm,Calm,-,N/A,,Clear,0,2014-02-06 10:52:00
5:52 AM,-4.0,-11.0,72,30.74,10.0,SW,3.5,-,N/A,,Clear,230,2014-02-06 11:52:00
6:52 AM,-5.1,-9.9,80,30.74,10.0,Calm,Calm,-,N/A,,Clear,0,2014-02-06 12:52:00
7:52 AM,-7.1,-11.9,79,30.75,10.0,WSW,5.8,-,N/A,,Clear,240,2014-02-06 13:52:00
8:52 AM,-0.9,-9.9,66,30.75,10.0,WSW,3.5,-,N/A,,Overcast,250,2014-02-06 14:52:00
9:52 AM,1.9,-8.0,63,30.74,10.0,Calm,Calm,-,N/A,,Scattered Clouds,0,2014-02-06 15:52:00
10:52 AM,3.0,-7.1,63,30.73,10.0,Calm,Calm,-,N/A,,Overcast,0,2014-02-06 16:52:00
11:52 AM,7.0,-6.0,55,30.71,10.0,West,3.5,-,N/A,,Overcast,270,2014-02-06 17:52:00
12:52 PM,8.1,-6.0,53,30.67,10.0,WNW,3.5,-,N/A,,Overcast,290,2014-02-06 18:52:00
1:52 PM,9.0,-5.1,53,30.64,10.0,WNW,8.1,-,N/A,,Overcast,290,2014-02-06 19:52:00
2:52 PM,9.0,-6.0,51,30.61,10.0,West,8.1,-,N/A,,Overcast,270,2014-02-06 20:52:00
3:52 PM,9.0,-5.1,53,30.60,10.0,WNW,4.6,-,N/A,,Overcast,290,2014-02-06 21:52:00
4:52 PM,9.0,-5.1,53,30.58,10.0,Variable,3.5,-,N/A,,Overcast,0,2014-02-06 22:52:00
5:52 PM,8.1,-5.1,55,30.57,10.0,Calm,Calm,-,N/A,,Overcast,0,2014-02-06 23:52:00
6:52 PM,6.1,-6.0,58,30.57,10.0,Calm,Calm,-,N/A,,Overcast,0,2014-02-07 00:52:00
7:52 PM,5.0,-5.1,63,30.58,10.0,West,4.6,-,N/A,,Overcast,260,2014-02-07 01:52:00
8:52 PM,6.1,-2.9,67,30.57,10.0,Calm,Calm,-,N/A,,Overcast,0,2014-02-07 02:52:00
9:52 PM,6.1,-0.9,73,30.57,10.0,Calm,Calm,-,N/A,,Overcast,0,2014-02-07 03:52:00
10:52 PM,6.1,-2.0,69,30.54,10.0,Calm,Calm,-,N/A,,Overcast,0,2014-02-07 04:52:00
11:52 PM,6.1,-0.9,73,30.51,10.0,Calm,Calm,-,N/A,,Overcast,0,2014-02-07 05:52:00